[[{"header":{"parameterUnit":"m.s-1","parameterCategory":1,"la1":30.2991,"la2":30.254,"lo1":-89.0895,"lo2":-89.0444,"dy":0.0017,"dx":0.0017,"nx":28,"ny":28,"refTime":"2025-04-09T21:00:00:Z","depth":0,"parameterNumber":2,"parameterNumberName":"U-component_of_WINDS"},"data":[0,0,0,0,0,0,0,0,0,0,0,0,0,0,0,0,0,0,0,0,0,0,0,0,0,0,0,0,0,0,0,0,0,0,0,0,0,0,0,0,0,0,0,0,0,0,0,0,0,0,0,0,0,0,0,0,0,0,2.1501,2.1501,0,2.1561,2.1562,2.1562,2.1603,2.1604,2.1604,2.1604,2.1668,2.1669,2.1671,0,0,0,0,0,0,0,0,0,0,0,0,0,2.1424,2.1425,2.1501,2.1501,2.1502,2.1561,2.1562,2.1562,2.1603,2.1604,2.1604,2.1604,2.1667,2.1669,2.1671,0,0,0,0,0,0,0,0,0,0,0,0,0,2.1468,2.1426,2.15,2.153,2.1533,2.1561,2.1562,2.1563,2.1603,2.1604,2.1604,2.1605,2.1667,2.1669,2.1671,2.1675,0,0,2.1678,2.1678,0,0,0,0,0,0,0,0,2.1466,2.1471,2.1525,2.1528,2.1531,2.1575,2.1558,2.16,2.1603,2.1577,2.1604,2.1605,2.1637,2.1641,2.1652,2.1678,2.1681,2.1678,2.1679,2.168,2.1681,0,0,0,0,0,0,0,2.1463,2.1469,2.1525,2.1525,2.1529,2.1541,2.1547,2.1566,2.1604,2.1579,2.1582,2.1589,2.1639,2.165,2.1654,2.1682,2.1678,2.168,2.1681,2.1682,2.1717,2.1716,0,0,0,0,0,0,2.1455,2.1466,2.1523,2.1526,2.1499,2.1542,2.1549,2.1561,2.1603,2.161,2.1588,2.159,2.1646,2.1651,2.1656,2.1664,2.168,2.1682,2.1683,2.1717,2.1717,2.1716,0,0,0,0,0,0,2.1453,2.1459,2.152,2.1497,2.1506,2.1543,2.1555,2.1562,2.1572,2.161,2.1617,2.1592,2.1646,2.1653,2.167,2.1667,2.1683,2.1685,2.1717,2.1717,2.1716,2.1681,0,0,0,0,0,0,2.145,2.1458,2.1459,2.1497,2.1507,2.1532,2.1555,2.1562,2.1576,2.1579,2.1616,2.1623,2.1647,2.1667,2.1673,2.167,2.1686,2.1718,2.1717,2.1717,2.1682,2.1679,2.1676,0,0,0,0,0,2.1448,2.1447,2.1459,2.1466,2.1509,2.1532,2.1538,2.1566,2.1575,2.1577,2.1602,2.1621,2.1667,2.1668,2.1675,2.1673,2.1718,2.1717,2.1717,2.1684,2.168,2.1676,0,0,0,0,0,0,2.1409,2.1452,2.1466,2.1478,2.1501,2.1539,2.1542,2.156,2.1582,2.1584,2.1618,2.1626,2.164,2.1659,2.166,2.1681,2.1695,2.1696,2.1668,2.1664,2.1661,2.1656,2.1688,0,0,0,0,0,2.1401,2.1416,2.1454,2.146,2.1471,2.1505,2.1516,2.1535,2.1561,2.1571,2.1597,2.1622,2.1642,2.1654,2.1675,2.1686,2.1695,2.1688,2.1685,2.1682,2.1682,2.169,2.1688,2.1714,2.1714,2.1714,0,0,2.1386,2.1412,2.1419,2.1453,2.1473,2.1488,2.1512,2.1527,2.1539,2.1574,2.1591,2.1612,2.1642,2.1656,2.1664,2.1672,2.1677,2.1681,2.1679,2.168,2.1689,2.1687,2.1685,2.1713,2.1713,2.1713,0,0,2.1367,2.1387,2.1395,2.1415,2.1446,2.1468,2.147,2.1506,2.1521,2.1539,2.1566,2.1581,2.1615,2.1635,2.165,2.1641,2.166,2.1647,2.163,2.1638,2.1636,2.1634,2.1631,2.163,2.1647,2.1646,2.1646,0,2.1344,2.1367,2.1397,2.1411,2.1425,2.1457,2.1466,2.1485,2.152,2.153,2.1539,2.1583,2.1605,2.1625,2.1623,2.1634,2.1638,2.1642,2.1634,2.1632,2.1631,2.1629,2.1627,2.1645,2.1645,2.1645,2.1645,0,2.1339,2.1355,2.1358,2.1391,2.1406,2.1417,2.145,2.1462,2.1481,2.1503,2.1522,2.1551,2.1578,2.1585,2.1603,2.1608,2.1612,2.1627,2.1642,2.1626,2.1625,2.1624,2.1642,2.1643,2.1643,2.1644,0,0,2.1294,2.1345,2.1346,2.1362,2.1399,2.1412,2.1426,2.1452,2.1462,2.1486,2.1499,2.1528,2.1542,2.1559,2.158,2.1587,2.1578,2.1601,2.1603,2.1596,2.1586,2.1574,2.1573,2.1592,2.1592,2.1592,2.1584,0,2.128,2.1305,2.1333,2.1348,2.1364,2.1396,2.1408,2.1432,2.1454,2.1471,2.1496,2.1516,2.1533,2.1543,2.1552,2.1578,2.1577,2.1579,2.1605,2.1605,2.1595,2.1572,2.1559,2.155,2.1583,2.1583,2.1583,0,2.1266,2.1288,2.1305,2.1342,2.1349,2.1359,2.1387,2.1403,2.1432,2.1447,2.1467,2.149,2.1508,2.1522,2.1547,2.1547,2.156,2.1575,2.1575,2.1578,2.1592,2.1574,2.1547,2.1546,2.1582,2.1582,2.1582,0,2.1232,2.1266,2.1281,2.1294,2.1337,2.1343,2.1362,2.1392,2.1406,2.1431,2.1441,2.1467,2.1481,2.1502,2.1532,2.1539,2.1554,2.1571,2.1568,2.1567,2.1569,2.1568,2.1544,2.1578,2.1578,2.1578,2.1578,0,2.1212,2.1221,2.1266,2.1275,2.1287,2.132,2.1331,2.1353,2.1379,2.1394,2.1424,2.1437,2.1477,2.1496,2.152,2.1537,2.1544,2.1558,2.1564,2.1554,2.1552,2.1562,2.1564,2.1578,2.1578,2.1578,2.1578,0,2.1175,2.1206,2.1224,2.1264,2.1274,2.1281,2.1315,2.1326,2.135,2.1368,2.1375,2.1413,2.1436,2.1469,2.1503,2.152,2.1534,2.1544,2.1523,2.1527,2.1522,2.1522,2.1503,2.1502,2.1537,2.1537,2.1536,0,2.116,2.1168,2.1209,2.122,2.1238,2.1256,2.1271,2.1305,2.132,2.1355,2.1362,2.1388,2.141,2.1447,2.1478,2.1504,2.1515,2.1507,2.1519,2.151,2.1515,2.1514,2.1515,2.1503,2.1503,2.1502,2.1502,0,2.113,2.1146,2.1166,2.1191,2.1208,2.1231,2.1254,2.1263,2.1302,2.1318,2.1342,2.1359,2.1394,2.142,2.1451,2.1471,2.1493,2.1498,2.1499,2.1489,2.1476,2.1483,2.1514,2.1498,2.1498,2.1499,2.1499,2.1499,2.1104,2.1113,2.1143,2.1165,2.1186,2.1208,2.122,2.1246,2.1266,2.1297,2.1317,2.134,2.1371,2.1415,2.1435,2.1455,2.1464,2.1465,2.1465,2.1465,2.1461,2.1474,2.1461,2.1461,2.1461,2.1461,2.1461,0,2.1075,2.1097,2.1117,2.1149,2.1166,2.1186,2.1214,2.1227,2.1247,2.1274,2.1296,2.1325,2.135,2.1384,2.1413,2.1422,2.1433,2.1428,2.1427,2.1432,2.1452,2.1448,2.1419,2.1419,2.1419,2.1419,2.1419,2.1419,2.1063,2.1078,2.1097,2.1125,2.1147,2.1169,2.1183,2.1204,2.1226,2.1256,2.1278,2.13,2.133,2.1361,2.1386,2.1396,2.1405,2.1397,2.1409,2.1427,2.1431,2.1434,2.1431,2.1398,2.1398,2.1388,2.1388,2.1387]},{"header":{"parameterUnit":"m.s-1","parameterCategory":1,"la1":30.2991,"la2":30.254,"lo1":-89.0895,"lo2":-89.0444,"dy":0.0017,"dx":0.0017,"nx":28,"ny":28,"refTime":"2025-04-09T21:00:00:Z","depth":0,"parameterNumber":3,"parameterNumberName":"V-component_of_WINDS"},"data":[0,0,0,0,0,0,0,0,0,0,0,0,0,0,0,0,0,0,0,0,0,0,0,0,0,0,0,0,0,0,0,0,0,0,0,0,0,0,0,0,0,0,0,0,0,0,0,0,0,0,0,0,0,0,0,0,0,0,-4.6118,-4.6118,0,-4.6164,-4.6164,-4.6165,-4.6193,-4.6193,-4.6193,-4.6193,-4.6237,-4.6238,-4.6239,0,0,0,0,0,0,0,0,0,0,0,0,0,-4.6052,-4.6053,-4.6118,-4.6118,-4.6119,-4.6164,-4.6164,-4.6165,-4.6193,-4.6193,-4.6193,-4.6193,-4.6237,-4.6238,-4.6239,0,0,0,0,0,0,0,0,0,0,0,0,0,-4.6087,-4.6053,-4.6117,-4.6138,-4.614,-4.6164,-4.6165,-4.6165,-4.6193,-4.6193,-4.6193,-4.6193,-4.6236,-4.6238,-4.624,-4.6245,0,0,-4.6244,-4.6245,0,0,0,0,0,0,0,0,-4.6085,-4.609,-4.6134,-4.6137,-4.6139,-4.6173,-4.6158,-4.6192,-4.6193,-4.6173,-4.6193,-4.6193,-4.6215,-4.6219,-4.6227,-4.6247,-4.6249,-4.6244,-4.6245,-4.6246,-4.6247,0,0,0,0,0,0,0,-4.6083,-4.6088,-4.6136,-4.6135,-4.6138,-4.6145,-4.615,-4.6164,-4.6192,-4.6174,-4.6177,-4.6182,-4.6217,-4.6225,-4.6228,-4.625,-4.6244,-4.6246,-4.6247,-4.6247,-4.6279,-4.6279,0,0,0,0,0,0,-4.6077,-4.6086,-4.6134,-4.6137,-4.6112,-4.6146,-4.6152,-4.6162,-4.6192,-4.6197,-4.6182,-4.6183,-4.6223,-4.6226,-4.623,-4.624,-4.6246,-4.6248,-4.6248,-4.6279,-4.6279,-4.6279,0,0,0,0,0,0,-4.6076,-4.6082,-4.6132,-4.6112,-4.6119,-4.6147,-4.6158,-4.6163,-4.6171,-4.6198,-4.6203,-4.6185,-4.6223,-4.6228,-4.6242,-4.6241,-4.6248,-4.625,-4.628,-4.6279,-4.6279,-4.6258,0,0,0,0,0,0,-4.6074,-4.6081,-4.6083,-4.6112,-4.612,-4.6144,-4.6158,-4.6163,-4.6174,-4.6176,-4.6202,-4.6207,-4.6223,-4.6239,-4.6243,-4.6244,-4.6251,-4.628,-4.6279,-4.6279,-4.6259,-4.6257,-4.6256,0,0,0,0,0,-4.6071,-4.6074,-4.6083,-4.6089,-4.6124,-4.6144,-4.6148,-4.6168,-4.6174,-4.6177,-4.6194,-4.6206,-4.6241,-4.6241,-4.6245,-4.6246,-4.628,-4.628,-4.6279,-4.626,-4.6258,-4.6256,0,0,0,0,0,0,-4.6042,-4.6078,-4.6088,-4.61,-4.6119,-4.6148,-4.6152,-4.6165,-4.6181,-4.6183,-4.6206,-4.6212,-4.6224,-4.6237,-4.6235,-4.6254,-4.6262,-4.6263,-4.6245,-4.6244,-4.6242,-4.6238,-4.6252,0,0,0,0,0,-4.6038,-4.6052,-4.6082,-4.609,-4.6099,-4.6124,-4.6133,-4.6148,-4.6167,-4.6175,-4.6193,-4.6211,-4.6227,-4.6236,-4.6251,-4.6262,-4.6268,-4.6265,-4.6263,-4.6262,-4.6262,-4.627,-4.6269,-4.6279,-4.6279,-4.6279,0,0,-4.6027,-4.6049,-4.6055,-4.6084,-4.61,-4.6114,-4.613,-4.6143,-4.6154,-4.6176,-4.6192,-4.6206,-4.6228,-4.6241,-4.6247,-4.6252,-4.6261,-4.6261,-4.626,-4.6261,-4.627,-4.6269,-4.6268,-4.6278,-4.6278,-4.6278,0,0,-4.6015,-4.6033,-4.6042,-4.6059,-4.6084,-4.6101,-4.6104,-4.6132,-4.6143,-4.6159,-4.6177,-4.619,-4.6215,-4.6231,-4.6242,-4.624,-4.6252,-4.6244,-4.6236,-4.6243,-4.6243,-4.6242,-4.6242,-4.6242,-4.6245,-4.6245,-4.6245,0,-4.5999,-4.6021,-4.6045,-4.6058,-4.6071,-4.6095,-4.6104,-4.6119,-4.6147,-4.6155,-4.6161,-4.6195,-4.6211,-4.6229,-4.6229,-4.6237,-4.6241,-4.6241,-4.6241,-4.6241,-4.6241,-4.6241,-4.6241,-4.6244,-4.6244,-4.6244,-4.6244,0,-4.6,-4.6015,-4.602,-4.6049,-4.6062,-4.6074,-4.6099,-4.611,-4.6124,-4.6141,-4.6158,-4.6179,-4.62,-4.6206,-4.6218,-4.6226,-4.6228,-4.6237,-4.6245,-4.6238,-4.6239,-4.6239,-4.6242,-4.6242,-4.6243,-4.6243,0,0,-4.5968,-4.6013,-4.6014,-4.6029,-4.606,-4.6072,-4.6086,-4.6108,-4.6117,-4.6137,-4.6148,-4.6171,-4.6181,-4.6194,-4.6209,-4.6215,-4.6214,-4.6224,-4.6225,-4.6222,-4.6225,-4.6218,-4.6217,-4.6223,-4.6223,-4.6223,-4.6223,0,-4.5961,-4.5987,-4.601,-4.6027,-4.6043,-4.6067,-4.6079,-4.6099,-4.6117,-4.6132,-4.615,-4.6167,-4.6177,-4.6186,-4.6194,-4.6213,-4.6215,-4.6213,-4.6234,-4.6234,-4.6227,-4.6218,-4.621,-4.6209,-4.6224,-4.6224,-4.6224,0,-4.5955,-4.5976,-4.5995,-4.6028,-4.6035,-4.6045,-4.6069,-4.6084,-4.6108,-4.612,-4.6136,-4.6153,-4.6169,-4.6176,-4.6198,-4.6197,-4.6207,-4.6218,-4.6219,-4.622,-4.6228,-4.6219,-4.6209,-4.6208,-4.6224,-4.6224,-4.6224,0,-4.593,-4.5963,-4.598,-4.5991,-4.6029,-4.6036,-4.6052,-4.6077,-4.609,-4.6111,-4.612,-4.6142,-4.6153,-4.617,-4.6192,-4.6196,-4.6213,-4.6222,-4.6223,-4.6222,-4.6224,-4.6224,-4.6215,-4.6231,-4.6231,-4.6231,-4.6231,0,-4.5919,-4.593,-4.597,-4.5979,-4.5993,-4.6021,-4.6033,-4.6051,-4.6074,-4.6088,-4.6111,-4.6123,-4.6152,-4.6169,-4.6186,-4.6203,-4.6208,-4.6218,-4.6222,-4.6216,-4.6214,-4.6222,-4.6222,-4.6231,-4.6231,-4.6231,-4.6231,0,-4.5892,-4.5919,-4.5939,-4.5975,-4.5985,-4.5993,-4.6024,-4.6035,-4.6055,-4.6072,-4.6078,-4.6108,-4.6129,-4.6154,-4.6182,-4.6194,-4.6209,-4.6215,-4.6201,-4.6203,-4.6203,-4.6203,-4.6198,-4.62,-4.6216,-4.6215,-4.6215,0,-4.5883,-4.5892,-4.5931,-4.5943,-4.5959,-4.5977,-4.5992,-4.602,-4.6034,-4.6065,-4.6072,-4.6095,-4.6115,-4.6147,-4.6171,-4.6193,-4.62,-4.6198,-4.6204,-4.6197,-4.6201,-4.62,-4.6201,-4.6195,-4.6195,-4.6195,-4.6194,0,-4.5864,-4.5878,-4.5898,-4.5924,-4.5941,-4.5962,-4.5985,-4.5993,-4.6026,-4.6041,-4.6063,-4.6079,-4.611,-4.6132,-4.6158,-4.6174,-4.619,-4.6193,-4.6194,-4.6187,-4.6178,-4.6184,-4.6196,-4.6192,-4.6192,-4.6193,-4.6193,-4.6193,-4.5845,-4.5856,-4.5885,-4.5908,-4.5929,-4.595,-4.5963,-4.5986,-4.6006,-4.6034,-4.6049,-4.6072,-4.6099,-4.6136,-4.6152,-4.6169,-4.6175,-4.6177,-4.6177,-4.6177,-4.6175,-4.6177,-4.6174,-4.6174,-4.6174,-4.6174,-4.6175,0,-4.5827,-4.5849,-4.587,-4.5902,-4.592,-4.5936,-4.5962,-4.5976,-4.5996,-4.6021,-4.6041,-4.6068,-4.6091,-4.6119,-4.6143,-4.6153,-4.6161,-4.6158,-4.6157,-4.6161,-4.6169,-4.6165,-4.6151,-4.6151,-4.6151,-4.6151,-4.6151,-4.6151,-4.582,-4.5839,-4.5858,-4.5888,-4.5909,-4.5933,-4.5947,-4.5967,-4.5987,-4.6016,-4.6037,-4.6055,-4.6081,-4.6109,-4.6131,-4.6139,-4.6147,-4.6142,-4.6152,-4.6158,-4.616,-4.6162,-4.6159,-4.6144,-4.6144,-4.6142,-4.6142,-4.6142]}]]